Location: Hutchins
(43.0916°N, 93.8811°W)
Time: 04:31:21
(UTC+00:00)

ACS3 Solar Sail - Pass Details

Date: 17 October 2024
Orbit: 961 x 1023 km, 97.5° (Epoch: 02 November)

Event Time Altitude Azimuth Distance (km) Brightness Sun altitude
Exits shadow 00:02:34 - 86° (E) 3,038 3.7 -6.7°
Reaches altitude 10° 00:03:46 10° 77° (ENE) 2,841 3.6 -6.9°
Maximum altitude 00:06:08 12° 55° (NE) 2,674 3.6 -7.3°
Drops below altitude 10° 00:08:31 10° 32° (NNE) 2,845 3.9 -7.8°
Sets 00:12:54 0° 5° (N) 3,827 4.8 -8.6°
